| time (UTC) | temp F | wind direction | speed MPH | gust MPH | rain 1hr in | rain 24hr in | rain mn in | humidity % | barometer mb |
| 20260503020434 | 70 | 296 | 0.0 | 0.0 | 0.00 | 0.00 | 0.00 | 69 | |
| 20260503015939 | 70 | 296 | 0.0 | 0.0 | 0.00 | 0.00 | 0.00 | 69 | |
| 20260503015447 | 70 | 296 | 0.0 | 1.0 | 0.00 | 0.00 | 0.00 | 69 | |
| 20260503014930 | 71 | 296 | 0.0 | 0.0 | 0.00 | 0.00 | 0.00 | 68 | |
| 20260503014415 | 71 | 297 | 0.0 | 3.0 | 0.00 | 0.00 | 0.00 | 68 | |
| 20260503013903 | 71 | 296 | 0.0 | 3.0 | 0.00 | 0.00 | 0.00 | 68 | |
| 20260503013355 | 72 | 296 | 0.0 | 4.0 | 0.00 | 0.00 | 0.00 | 68 | |
| 20260503012856 | 72 | 297 | 1.0 | 4.0 | 0.00 | 0.00 | 0.00 | 67 | |
| 20260503012342 | 72 | 297 | 1.0 | 4.0 | 0.00 | 0.00 | 0.00 | 67 | |
| 20260503011836 | 72 | 297 | 1.0 | 4.0 | 0.00 | 0.00 | 0.00 | 66 | |
| 20260503010705 | 73 | 296 | 1.0 | 5.0 | 0.00 | 0.00 | 0.00 | 66 | |
| 20260503010151 | 73 | 296 | 1.0 | 5.0 | 0.00 | 0.00 | 0.00 | 66 | |
| 20260503005658 | 73 | 296 | 2.0 | 7.0 | 0.00 | 0.00 | 0.00 | 66 | |
| 20260503005201 | 73 | 296 | 3.0 | 7.0 | 0.00 | 0.00 | 0.00 | 66 | |
| 20260503004024 | 73 | 298 | 2.0 | 7.0 | 0.00 | 0.00 | 0.00 | 66 | |
| 20260503003522 | 73 | 302 | 3.0 | 7.0 | 0.00 | 0.00 | 0.00 | 66 | |
| 20260503003020 | 73 | 300 | 4.0 | 7.0 | 0.00 | 0.00 | 0.00 | 66 | |
| 20260503002508 | 73 | 294 | 4.0 | 7.0 | 0.00 | 0.00 | 0.00 | 65 | |
| 20260503001957 | 73 | 290 | 4.0 | 8.0 | 0.00 | 0.00 | 0.00 | 64 | |
| 20260503001446 | 74 | 294 | 4.0 | 8.0 | 0.00 | 0.00 | 0.00 | 64 | |
| 20260503000321 | 74 | 288 | 4.0 | 8.0 | 0.00 | 0.00 | 0.00 | 63 | |
| 20260502235814 | 74 | 294 | 4.0 | 8.0 | 0.00 | 0.00 | 0.00 | 63 | |
| 20260502235310 | 75 | 294 | 5.0 | 8.0 | 0.00 | 0.00 | 0.00 | 63 | |
| 20260502234807 | 75 | 313 | 4.0 | 8.0 | 0.00 | 0.00 | 0.00 | 62 | |
| 20260502234257 | 75 | 296 | 3.0 | 6.0 | 0.00 | 0.00 | 0.00 | 62 | |
| 20260502233804 | 76 | 296 | 3.0 | 6.0 | 0.00 | 0.00 | 0.00 | 62 | |
| 20260502233307 | 76 | 304 | 2.0 | 6.0 | 0.00 | 0.00 | 0.00 | 62 | |
| 20260502232753 | 75 | 296 | 2.0 | 6.0 | 0.00 | 0.00 | 0.00 | 62 | |
| 20260502232253 | 75 | 288 | 2.0 | 6.0 | 0.00 | 0.00 | 0.00 | 63 | |
| 20260502231751 | 75 | 301 | 2.0 | 6.0 | 0.00 | 0.00 | 0.00 | 62 | |
| 20260502231238 | 75 | 289 | 3.0 | 6.0 | 0.00 | 0.00 | 0.00 | 63 | |
| 20260502230735 | 75 | 288 | 2.0 | 6.0 | 0.00 | 0.00 | 0.00 | 63 | |
| 20260502230232 | 74 | 292 | 2.0 | 5.0 | 0.00 | 0.00 | 0.00 | 64 | |
| 20260502225708 | 74 | 320 | 3.0 | 5.0 | 0.00 | 0.00 | 0.00 | 65 | |
| 20260502225155 | 74 | 298 | 2.0 | 6.0 | 0.00 | 0.00 | 0.00 | 65 | |
| 20260502224704 | 74 | 304 | 2.0 | 6.0 | 0.00 | 0.00 | 0.00 | 64 | |
| 20260502224156 | 73 | 292 | 2.0 | 8.0 | 0.00 | 0.00 | 0.00 | 64 | |
| 20260502223655 | 73 | 298 | 3.0 | 8.0 | 0.00 | 0.00 | 0.00 | 65 | |
| 20260502223148 | 73 | 285 | 4.0 | 8.0 | 0.00 | 0.00 | 0.00 | 65 | |
| 20260502222636 | 73 | 292 | 4.0 | 8.0 | 0.00 | 0.00 | 0.00 | 65 | |
| 20260502222141 | 74 | 301 | 3.0 | 10.0 | 0.00 | 0.00 | 0.00 | 64 | |
| 20260502221644 | 74 | 332 | 4.0 | 10.0 | 0.00 | 0.00 | 0.00 | 63 | |
| 20260502221130 | 75 | 290 | 4.0 | 10.0 | 0.00 | 0.00 | 0.00 | 63 | |
| 20260502220631 | 75 | 288 | 2.0 | 10.0 | 0.00 | 0.00 | 0.00 | 61 | |
| 20260502220112 | 76 | 40 | 1.0 | 5.0 | 0.00 | 0.00 | 0.00 | 62 | |
| 20260502215614 | 76 | 42 | 1.0 | 5.0 | 0.00 | 0.00 | 0.00 | 61 | |
| 20260502215109 | 76 | 294 | 1.0 | 5.0 | 0.00 | 0.00 | 0.00 | 61 | |
| 20260502214617 | 77 | 308 | 1.0 | 7.0 | 0.00 | 0.00 | 0.00 | 60 | |
| 20260502214101 | 77 | 0 | 1.0 | 7.0 | 0.00 | 0.00 | 0.00 | 60 | |
| 20260502213610 | 77 | 50 | 2.0 | 7.0 | 0.00 | 0.00 | 0.00 | 60 | |
| 20260502213101 | 77 | 298 | 1.0 | 7.0 | 0.00 | 0.00 | 0.00 | 58 | |
| 20260502212542 | 77 | 298 | 0.0 | 4.0 | 0.00 | 0.00 | 0.00 | 60 | |
| 20260502212046 | 77 | 355 | 0.0 | 7.0 | 0.00 | 0.00 | 0.00 | 60 | |
| 20260502211546 | 78 | 44 | 0.0 | 7.0 | 0.00 | 0.00 | 0.00 | 59 | |
| 20260502211033 | 78 | 109 | 1.0 | 7.0 | 0.00 | 0.00 | 0.00 | 57 | |
| 20260502210517 | 78 | 325 | 0.0 | 7.0 | 0.00 | 0.00 | 0.00 | 56 | |
| 20260502210015 | 79 | 113 | 0.0 | 5.0 | 0.00 | 0.00 | 0.00 | 57 | |
| 20260502205500 | 79 | 86 | 1.0 | 5.0 | 0.00 | 0.00 | 0.00 | 57 | |
| 20260502205003 | 79 | 163 | 0.0 | 5.0 | 0.00 | 0.00 | 0.00 | 58 | |
| 20260502204446 | 78 | 161 | 0.0 | 3.0 | 0.00 | 0.00 | 0.00 | 58 | |
| 20260502203941 | 78 | 69 | 0.0 | 3.0 | 0.00 | 0.00 | 0.00 | 58 | |
| 20260502203438 | 78 | 15 | 0.0 | 2.0 | 0.00 | 0.00 | 0.00 | 59 | |
| 20260502202930 | 78 | 20 | 0.0 | 6.0 | 0.00 | 0.00 | 0.00 | 58 | |
| 20260502201756 | 78 | 299 | 0.0 | 3.0 | 0.00 | 0.00 | 0.00 | 60 | |
| 20260502201242 | 77 | 298 | 0.0 | 3.0 | 0.00 | 0.00 | 0.00 | 61 | |
| 20260502200720 | 76 | 125 | 0.0 | 3.0 | 0.00 | 0.00 | 0.00 | 61 | |
| 20260502200206 | 76 | 292 | 0.0 | 3.0 | 0.00 | 0.00 | 0.00 | 61 | |
| 20260502195656 | 76 | 355 | 0.0 | 6.0 | 0.00 | 0.00 | 0.00 | 62 | |
| 20260502195159 | 76 | 169 | 0.0 | 6.0 | 0.00 | 0.00 | 0.00 | 61 | |
| 20260502194649 | 76 | 273 | 1.0 | 6.0 | 0.00 | 0.00 | 0.00 | 62 | |
| 20260502194136 | 75 | 280 | 1.0 | 6.0 | 0.00 | 0.00 | 0.00 | 64 | |
| 20260502193009 | 76 | 327 | 0.0 | 4.0 | 0.00 | 0.00 | 0.00 | 60 | |
| 20260502192457 | 77 | 42 | 0.0 | 3.0 | 0.00 | 0.00 | 0.00 | 60 | |
| 20260502191952 | 77 | 35 | 0.0 | 2.0 | 0.00 | 0.00 | 0.00 | 60 | |
| 20260502191438 | 76 | 50 | 1.0 | 1.0 | 0.00 | 0.00 | 0.00 | 62 | |
| 20260502190931 | 76 | 159 | 1.0 | 5.0 | 0.00 | 0.00 | 0.00 | 61 | |
| 20260502185810 | 76 | 5 | 0.0 | 0.0 | 0.00 | 0.00 | 0.00 | 63 | |
| 20260502185315 | 75 | 199 | 0.0 | 3.0 | 0.00 | 0.00 | 0.00 | 62 | |
| 20260502184821 | 75 | 101 | 0.0 | 2.0 | 0.00 | 0.00 | 0.00 | 63 | |
| 20260502184310 | 75 | 163 | 0.0 | 7.0 | 0.00 | 0.00 | 0.00 | 65 | |
| 20260502183803 | 74 | 124 | 1.0 | 7.0 | 0.00 | 0.00 | 0.00 | 65 | |
| 20260502182645 | 74 | 355 | 1.0 | 6.0 | 0.00 | 0.00 | 0.00 | 64 | |
| 20260502182125 | 74 | 24 | 1.0 | 5.0 | 0.00 | 0.00 | 0.00 | 65 | |
| 20260502181625 | 73 | 301 | 1.0 | 5.0 | 0.00 | 0.00 | 0.00 | 67 | |
| 20260502181108 | 73 | 300 | 0.0 | 5.0 | 0.00 | 0.00 | 0.00 | 66 | |
| 20260502180603 | 72 | 325 | 0.0 | 3.0 | 0.00 | 0.00 | 0.00 | 68 | |
| 20260502170233 | 64 | 295 | 0.0 | 3.0 | 0.00 | 0.00 | 0.00 | 85 | |
| 20260502164052 | 60 | 309 | 0.0 | 0.0 | 0.00 | 0.00 | 0.00 | 94 | |
| 20260502163533 | 60 | 309 | 0.0 | 0.0 | 0.00 | 0.00 | 0.00 | 95 | |
| 20260502163015 | 59 | 309 | 0.0 | 0.0 | 0.00 | 0.00 | 0.00 | 95 | |
| 20260502162509 | 58 | 292 | 0.0 | 0.0 | 0.00 | 0.00 | 0.00 | 95 | |
| 20260502162000 | 58 | 292 | 0.0 | 0.0 | 0.00 | 0.00 | 0.00 | 95 | |
| 20260502161508 | 58 | 292 | 0.0 | 0.0 | 0.00 | 0.00 | 0.00 | 95 | |
| 20260502161018 | 58 | 292 | 0.0 | 0.0 | 0.00 | 0.00 | 0.00 | 95 | |
| 20260502160501 | 57 | 292 | 0.0 | 0.0 | 0.00 | 0.00 | 0.00 | 96 | |
| 20260502152150 | 55 | 297 | 0.0 | 4.0 | 0.00 | 0.00 | 0.00 | 95 | |
| 20260502151015 | 55 | 298 | 0.0 | 0.0 | 0.00 | 0.00 | 0.00 | 95 | |
| 20260502150513 | 55 | 297 | 0.0 | 0.0 | 0.00 | 0.00 | 0.00 | 95 | |
| 20260502130410 | 54 | 297 | 0.0 | 0.0 | 0.00 | 0.01 | 0.00 | 94 | |
| 20260502123732 | 53 | 298 | 0.0 | 0.0 | 0.00 | 0.01 | 0.00 | 94 | |
| 20260502123220 | 53 | 298 | 0.0 | 0.0 | 0.00 | 0.01 | 0.00 | 94 | |
| 20260502122718 | 53 | 298 | 0.0 | 0.0 | 0.00 | 0.01 | 0.00 | 94 | |
| 20260502122158 | 53 | 297 | 0.0 | 0.0 | 0.00 | 0.01 | 0.00 | 94 | |
| 20260502121651 | 53 | 298 | 0.0 | 0.0 | 0.00 | 0.01 | 0.00 | 94 | |
| 20260502121153 | 53 | 297 | 0.0 | 0.0 | 0.00 | 0.01 | 0.00 | 94 | |
| 20260502120657 | 53 | 297 | 0.0 | 0.0 | 0.00 | 0.01 | 0.00 | 94 | |
| 20260502120204 | 53 | 298 | 0.0 | 0.0 | 0.00 | 0.01 | 0.00 | 93 | |
| 20260502115648 | 53 | 297 | 0.0 | 0.0 | 0.00 | 0.01 | 0.00 | 93 | |
| 20260502115130 | 52 | 298 | 0.0 | 0.0 | 0.00 | 0.01 | 0.00 | 93 | |
| 20260502114612 | 52 | 297 | 0.0 | 0.0 | 0.00 | 0.01 | 0.00 | 93 | |
| 20260502114057 | 52 | 298 | 0.0 | 0.0 | 0.00 | 0.01 | 0.00 | 93 | |
| 20260502113555 | 52 | 297 | 0.0 | 0.0 | 0.00 | 0.01 | 0.00 | 93 | |
| 20260502113050 | 52 | 297 | 0.0 | 0.0 | 0.00 | 0.01 | 0.00 | 93 | |
| 20260502112541 | 52 | 297 | 0.0 | 0.0 | 0.00 | 0.01 | 0.00 | 93 | |
| 20260502112027 | 51 | 297 | 0.0 | 0.0 | 0.00 | 0.01 | 0.00 | 93 | |
| 20260502111529 | 51 | 297 | 0.0 | 0.0 | 0.00 | 0.01 | 0.00 | 93 | |
| 20260502111038 | 51 | 297 | 0.0 | 0.0 | 0.00 | 0.01 | 0.00 | 93 | |
| 20260502110542 | 51 | 297 | 0.0 | 0.0 | 0.00 | 0.01 | 0.00 | 92 | |
| 20260502105358 | 50 | 297 | 0.0 | 0.0 | 0.00 | 0.01 | 0.00 | 92 | |
| 20260502104901 | 50 | 297 | 0.0 | 0.0 | 0.00 | 0.01 | 0.00 | 92 | |
| 20260502104404 | 50 | 297 | 0.0 | 0.0 | 0.00 | 0.01 | 0.00 | 92 | |
| 20260502103855 | 50 | 298 | 0.0 | 0.0 | 0.00 | 0.01 | 0.00 | 92 | |
| 20260502102054 | 50 | 298 | 0.0 | 0.0 | 0.00 | 0.01 | 0.00 | 91 | |
| 20260502100940 | 50 | 297 | 0.0 | 0.0 | 0.00 | 0.01 | 0.00 | 91 | |
| 20260502100432 | 50 | 297 | 0.0 | 0.0 | 0.00 | 0.01 | 0.00 | 91 | |
| 20260502090605 | 51 | 297 | 0.0 | 0.0 | 0.00 | 0.01 | 0.00 | 90 | |
| 20260502090110 | 51 | 297 | 0.0 | 0.0 | 0.00 | 0.01 | 0.00 | 90 | |
| 20260502071506 | 52 | 297 | 0.0 | 0.0 | 0.00 | 0.01 | 0.00 | 88 | |
| 20260502070332 | 52 | 297 | 0.0 | 0.0 | 0.00 | 0.01 | 0.00 | 88 | |
| 20260502065821 | 52 | 298 | 0.0 | 0.0 | 0.00 | 0.01 | 0.01 | 87 | |
| 20260502065315 | 52 | 297 | 0.0 | 0.0 | 0.00 | 0.01 | 0.01 | 87 | |
| 20260502064757 | 53 | 298 | 0.0 | 0.0 | 0.00 | 0.01 | 0.01 | 86 | |
| 20260502064300 | 53 | 298 | 0.0 | 0.0 | 0.00 | 0.01 | 0.01 | 86 | |
| 20260502063744 | 53 | 298 | 0.0 | 0.0 | 0.00 | 0.01 | 0.01 | 86 | |
| 20260502063228 | 53 | 297 | 0.0 | 0.0 | 0.00 | 0.01 | 0.01 | 86 | |
| 20260502062737 | 53 | 297 | 0.0 | 0.0 | 0.00 | 0.01 | 0.01 | 86 | |
| 20260502062224 | 53 | 298 | 0.0 | 0.0 | 0.00 | 0.01 | 0.01 | 85 | |
| 20260502061722 | 54 | 297 | 0.0 | 0.0 | 0.00 | 0.01 | 0.01 | 86 | |
| 20260502061219 | 54 | 297 | 0.0 | 0.0 | 0.00 | 0.01 | 0.01 | 85 | |
| 20260502060718 | 54 | 298 | 0.0 | 0.0 | 0.00 | 0.01 | 0.01 | 85 | |
| 20260502060211 | 54 | 298 | 0.0 | 0.0 | 0.00 | 0.01 | 0.01 | 85 | |
| 20260502055715 | 54 | 297 | 0.0 | 0.0 | 0.00 | 0.01 | 0.01 | 85 | |
| 20260502055219 | 54 | 298 | 0.0 | 0.0 | 0.00 | 0.01 | 0.01 | 85 | |
| 20260502054711 | 54 | 297 | 0.0 | 0.0 | 0.00 | 0.01 | 0.01 | 85 | |
| 20260502054212 | 54 | 297 | 0.0 | 0.0 | 0.00 | 0.01 | 0.01 | 85 | |
| 20260502053719 | 55 | 298 | 0.0 | 0.0 | 0.00 | 0.01 | 0.01 | 85 | |
| 20260502053206 | 55 | 298 | 0.0 | 0.0 | 0.00 | 0.01 | 0.01 | 84 | |
| 20260502052054 | 55 | 298 | 0.0 | 0.0 | 0.00 | 0.01 | 0.01 | 84 | |
| 20260502050912 | 56 | 298 | 0.0 | 0.0 | 0.00 | 0.01 | 0.01 | 83 | |
| 20260502050400 | 56 | 298 | 0.0 | 0.0 | 0.00 | 0.01 | 0.01 | 83 | |
| 20260502045908 | 56 | 298 | 0.0 | 0.0 | 0.00 | 0.01 | 0.01 | 83 | |
| 20260502044743 | 57 | 297 | 0.0 | 0.0 | 0.00 | 0.01 | 0.01 | 82 | |
| 20260502044228 | 57 | 298 | 0.0 | 0.0 | 0.00 | 0.01 | 0.01 | 82 | |
| 20260502043727 | 57 | 298 | 0.0 | 0.0 | 0.00 | 0.01 | 0.01 | 82 | |
| 20260502043208 | 58 | 297 | 0.0 | 0.0 | 0.00 | 0.01 | 0.01 | 82 | |
| 20260502042708 | 58 | 297 | 0.0 | 0.0 | 0.00 | 0.01 | 0.01 | 82 | |
| 20260502042208 | 58 | 297 | 0.0 | 0.0 | 0.00 | 0.01 | 0.01 | 82 | |
| 20260502041700 | 59 | 298 | 0.0 | 0.0 | 0.00 | 0.01 | 0.01 | 81 | |
| 20260502041151 | 59 | 297 | 0.0 | 0.0 | 0.00 | 0.01 | 0.01 | 81 | |
| 20260502040645 | 59 | 297 | 0.0 | 0.0 | 0.00 | 0.01 | 0.01 | 81 | |
| 20260502040144 | 59 | 298 | 0.0 | 0.0 | 0.00 | 0.01 | 0.01 | 81 | |
| 20260502035623 | 60 | 297 | 0.0 | 0.0 | 0.00 | 0.01 | 0.01 | 81 | |
| 20260502035132 | 60 | 297 | 0.0 | 0.0 | 0.00 | 0.01 | 0.01 | 81 | |
| 20260502034612 | 60 | 298 | 0.0 | 0.0 | 0.00 | 0.01 | 0.01 | 81 | |
| 20260502034111 | 60 | 298 | 0.0 | 1.0 | 0.00 | 0.01 | 0.01 | 81 | |
| 20260502033556 | 61 | 298 | 0.0 | 1.0 | 0.00 | 0.01 | 0.01 | 81 | |
| 20260502033053 | 61 | 298 | 0.0 | 0.0 | 0.00 | 0.01 | 0.01 | 80 | |
| 20260502032537 | 61 | 298 | 0.0 | 0.0 | 0.00 | 0.01 | 0.01 | 80 | |
| 20260502032038 | 61 | 298 | 0.0 | 2.0 | 0.00 | 0.01 | 0.01 | 79 | |
| 20260502031523 | 62 | 298 | 0.0 | 3.0 | 0.00 | 0.01 | 0.01 | 79 | |
| 20260502031025 | 62 | 297 | 0.0 | 1.0 | 0.00 | 0.01 | 0.01 | 78 | |
| 20260502030531 | 63 | 298 | 0.0 | 1.0 | 0.00 | 0.01 | 0.01 | 78 | |
| 20260502030029 | 63 | 298 | 0.0 | 1.0 | 0.00 | 0.01 | 0.01 | 78 | |
| 20260502025528 | 63 | 297 | 0.0 | 3.0 | 0.00 | 0.01 | 0.01 | 78 | |
| 20260502024413 | 64 | 298 | 0.0 | 2.0 | 0.00 | 0.01 | 0.01 | 77 | |
| 20260502023912 | 64 | 298 | 0.0 | 2.0 | 0.00 | 0.01 | 0.01 | 76 | |
| 20260502022727 | 65 | 298 | 1.0 | 4.0 | 0.00 | 0.01 | 0.01 | 75 | |
| 20260502022232 | 65 | 298 | 1.0 | 4.0 | 0.00 | 0.01 | 0.01 | 75 | |
| 20260502021741 | 65 | 298 | 2.0 | 4.0 | 0.00 | 0.01 | 0.01 | 74 | |
| 20260502021231 | 66 | 298 | 1.0 | 7.0 | 0.00 | 0.01 | 0.01 | 73 |